UAL1183 KEWR-KBOS

Flight info

Callsign UAL1183
Flight time N/A
Altitude 21000
Route MERIT ROBUC3
Aircraft A20N/M-SDE2E3FGHIRWXY/LB1

Departure

Time 2026-05-06 15:27
Airport Newark Liberty International Airport (KEWR)

Arrival

Time N/A
Airport Boston Logan International Airport (KBOS)
Time Latitude Longitude Altitude Speed Heading
2026-05-06 15:02 40.69420 -74.17424 18 ft 0 kts 18°
2026-05-06 15:18 40.69412 -74.17428 19 ft 2 kts 18°
2026-05-06 15:18 40.69396 -74.17435 19 ft 2 kts 21°
2026-05-06 15:18 40.69381 -74.17443 18 ft 2 kts 24°
2026-05-06 15:18 40.69366 -74.17453 18 ft 2 kts 31°
2026-05-06 15:19 40.69353 -74.17466 17 ft 2 kts 71°
2026-05-06 15:19 40.69354 -74.17482 18 ft 1 kts 135°
2026-05-06 15:21 40.69344 -74.17461 17 ft 7 kts 115°
2026-05-06 15:22 40.69322 -74.17368 16 ft 14 kts 106°
2026-05-06 15:22 40.69275 -74.17238 17 ft 17 kts 126°
2026-05-06 15:22 40.69216 -74.17103 18 ft 16 kts 114°
2026-05-06 15:22 40.69255 -74.17012 18 ft 14 kts 26°
2026-05-06 15:23 40.69354 -74.16952 20 ft 17 kts 27°
2026-05-06 15:23 40.69465 -74.16882 21 ft 20 kts 24°
2026-05-06 15:23 40.69599 -74.16793 20 ft 23 kts 27°
2026-05-06 15:23 40.69747 -74.16702 16 ft 22 kts 22°
2026-05-06 15:24 40.69887 -74.16615 15 ft 22 kts 27°
2026-05-06 15:24 40.70003 -74.16541 15 ft 16 kts 28°
2026-05-06 15:24 40.70063 -74.16482 15 ft 6 kts 76°
2026-05-06 15:24 40.70064 -74.16480 15 ft 0 kts 78°
2026-05-06 15:25 40.70065 -74.16473 15 ft 5 kts 78°
2026-05-06 15:25 40.70044 -74.16375 15 ft 13 kts 156°
2026-05-06 15:25 40.69997 -74.16387 13 ft 0 kts 205°
2026-05-06 15:27 40.69869 -74.16468 15 ft 63 kts 206°
2026-05-06 15:27 40.69210 -74.16885 23 ft 143 kts 203°
2026-05-06 15:27 40.68172 -74.17532 353 ft 184 kts 208°
2026-05-06 15:27 40.66850 -74.18178 968 ft 218 kts 191°
2026-05-06 15:28 40.65258 -74.18083 1857 ft 238 kts 174°
2026-05-06 15:28 40.63623 -74.17604 2250 ft 243 kts 172°
2026-05-06 15:28 40.61989 -74.17424 2435 ft 230 kts 193°
2026-05-06 15:28 40.60457 -74.17990 2514 ft 229 kts 203°
2026-05-06 15:29 40.58987 -74.18787 2504 ft 227 kts 206°
2026-05-06 15:29 40.57721 -74.19958 2507 ft 228 kts 230°
2026-05-06 15:29 40.57106 -74.21879 2503 ft 231 kts 259°
2026-05-06 15:29 40.57387 -74.24003 2504 ft 248 kts 288°
2026-05-06 15:30 40.58512 -74.25766 2603 ft 266 kts 317°
2026-05-06 15:30 40.60275 -74.26667 3009 ft 286 kts 345°
2026-05-06 15:30 40.62258 -74.26960 3510 ft 286 kts 347°
2026-05-06 15:30 40.64272 -74.27220 4006 ft 292 kts 347°
2026-05-06 15:31 40.66290 -74.27467 4516 ft 292 kts 347°
2026-05-06 15:31 40.68341 -74.27709 5016 ft 299 kts 348°
2026-05-06 15:31 40.70424 -74.27946 5516 ft 301 kts 352°
2026-05-06 15:32 40.74377 -74.25874 6946 ft 324 kts 47°
2026-05-06 15:32 40.75667 -74.23440 8026 ft 324 kts 65°
2026-05-06 15:32 40.76741 -74.20800 9100 ft 329 kts 65°
2026-05-06 15:32 40.77907 -74.18168 10101 ft 336 kts 61°
2026-05-06 15:33 40.79239 -74.15527 10826 ft 357 kts 57°
2026-05-06 15:33 40.80758 -74.12787 11302 ft 383 kts 55°
2026-05-06 15:33 40.82413 -74.09945 11866 ft 398 kts 53°
2026-05-06 15:33 40.83974 -74.07311 12666 ft 403 kts 53°
2026-05-06 15:34 40.85713 -74.04377 13510 ft 410 kts 53°
2026-05-06 15:34 40.87477 -74.01390 14309 ft 415 kts 53°
2026-05-06 15:34 40.89264 -73.98351 15117 ft 420 kts 52°
2026-05-06 15:34 40.91035 -73.95333 15906 ft 425 kts 52°
2026-05-06 15:35 40.92824 -73.92278 16706 ft 428 kts 52°
2026-05-06 15:35 40.94654 -73.89150 17487 ft 433 kts 51°
2026-05-06 15:35 40.96515 -73.85964 18260 ft 438 kts 51°
2026-05-06 15:35 40.98378 -73.82773 18999 ft 440 kts 51°
2026-05-06 15:36 41.00264 -73.79539 19741 ft 443 kts 51°
2026-05-06 15:36 41.02156 -73.76290 20429 ft 447 kts 51°
2026-05-06 15:36 41.04058 -73.73022 20833 ft 450 kts 51°
2026-05-06 15:36 41.05972 -73.69728 20982 ft 451 kts 51°
2026-05-06 15:37 41.07886 -73.66430 21014 ft 451 kts 51°
2026-05-06 15:37 41.09800 -73.63129 21013 ft 450 kts 51°
2026-05-06 15:37 41.11703 -73.59844 21015 ft 450 kts 51°
2026-05-06 15:37 41.13587 -73.56590 21012 ft 450 kts 51°
2026-05-06 15:38 41.15324 -73.53587 21002 ft 451 kts 51°
2026-05-06 15:38 41.17328 -73.50122 20923 ft 450 kts 51°
2026-05-06 15:38 41.19228 -73.46833 20891 ft 449 kts 51°
2026-05-06 15:38 41.21128 -73.43540 20891 ft 450 kts 51°
2026-05-06 15:39 41.23032 -73.40233 20892 ft 450 kts 51°
2026-05-06 15:39 41.24933 -73.36927 20894 ft 449 kts 52°
2026-05-06 15:39 41.26826 -73.33629 20893 ft 450 kts 52°
2026-05-06 15:39 41.28726 -73.30317 20897 ft 450 kts 52°
2026-05-06 15:40 41.30597 -73.27052 20894 ft 449 kts 52°
2026-05-06 15:40 41.32493 -73.23740 20900 ft 449 kts 52°
2026-05-06 15:40 41.34080 -73.20963 20903 ft 449 kts 52°
2026-05-06 15:40 41.35972 -73.17646 20907 ft 449 kts 53°
2026-05-06 15:41 41.37571 -73.14090 20907 ft 449 kts 66°
2026-05-06 15:41 41.38563 -73.10166 20908 ft 445 kts 80°
2026-05-06 15:41 41.39035 -73.06107 20906 ft 443 kts 85°
2026-05-06 15:41 41.39466 -73.02037 20906 ft 444 kts 85°
2026-05-06 15:42 41.39904 -72.97957 20909 ft 444 kts 84°
2026-05-06 15:42 41.40342 -72.93895 20895 ft 444 kts 84°
2026-05-06 15:42 41.40781 -72.89812 20897 ft 444 kts 84°
2026-05-06 15:42 41.41217 -72.85733 20895 ft 444 kts 84°
2026-05-06 15:43 41.41647 -72.81697 20898 ft 444 kts 84°
2026-05-06 15:43 41.42083 -72.77590 20898 ft 444 kts 84°
2026-05-06 15:43 41.42513 -72.73519 20896 ft 444 kts 84°
2026-05-06 15:43 41.42942 -72.69446 20899 ft 444 kts 84°
2026-05-06 15:44 41.43345 -72.65609 20930 ft 444 kts 84°
2026-05-06 15:44 41.43766 -72.61581 20932 ft 444 kts 84°
2026-05-06 15:44 41.44191 -72.57503 20931 ft 444 kts 84°
2026-05-06 15:44 41.44614 -72.53434 20933 ft 443 kts 84°
2026-05-06 15:45 41.45036 -72.49354 20932 ft 444 kts 84°
2026-05-06 15:45 41.45456 -72.45277 20933 ft 444 kts 84°
2026-05-06 15:45 41.45876 -72.41196 20933 ft 443 kts 84°
2026-05-06 15:46 41.47118 -72.29027 20926 ft 443 kts 85°
2026-05-06 15:46 41.47533 -72.24952 20927 ft 443 kts 84°
2026-05-06 15:46 41.48213 -72.20926 20937 ft 446 kts 74°
2026-05-06 15:47 41.49334 -72.17085 20937 ft 446 kts 64°
2026-05-06 15:47 41.50696 -72.13406 20939 ft 447 kts 64°
2026-05-06 15:47 41.52066 -72.09682 20842 ft 447 kts 64°
2026-05-06 15:47 41.53428 -72.05957 20487 ft 446 kts 64°
2026-05-06 15:48 41.54785 -72.02240 20070 ft 442 kts 65°
2026-05-06 15:48 41.56057 -71.98527 19644 ft 438 kts 70°